Regional Weather Roundup
Issued by NWS

Home | Current Version | Previous Version | Text Only | Print | Product List | Glossary On
Versions: 1 2 3 4 5 6 7 8 9 10 11 12 13 14 15 16 17 18 19 20 21 22 23 24 25 26 27 28 29 30 31 32 33 34 35 36 37 38 39 40 41 42 43 44 45 46 47 48 49 50
311
ASUS43 KTOP 301759
RWRKS

WEATHER ROUNDUP FOR KANSAS
NATIONAL WEATHER SERVICE GOODLAND KS
100 PM CDT MON MAY 30 2016

NOTE:  "FAIR" INDICATES FEW OR NO CLOUDS BELOW 12,000 FEET WITH NO
SIGNIFICANT WEATHER AND/OR OBSTRUCTIONS TO VISIBILITY.

KSZ001>006-013>018-027>032-041>047-301900-
NORTHWEST KANSAS

CITY           SKY/WX    TMP DP  RH WIND       PRES   REMARKS
GOODLAND       SUNNY     75  56  51 S13       29.96F
6HR MIN TEMP:  54; 6HR MAX TEMP:  75;

HAYS           SUNNY     79  57  47 S14G22    29.98F
HILL CITY      SUNNY     82  54  37 S18       29.96F
6HR MIN TEMP:  52; 6HR MAX TEMP:  82;

RUSSELL        SUNNY     78  60  53 S15       29.97F
6HR MIN TEMP:  58; 6HR MAX TEMP:  78;

$$

KSZ061>065-074>080-084>089-301900-
SOUTHWEST KANSAS

CITY           SKY/WX    TMP DP  RH WIND       PRES   REMARKS
DODGE CITY     SUNNY     78  53  41 S17G25    30.00F
6HR MIN TEMP:  54; 6HR MAX TEMP:  78;

ELKHART          N/A     80  55  42 S12         N/A
GARDEN CITY    SUNNY     81  50  33 S17G23    29.98F
6HR MIN TEMP:  49; 6HR MAX TEMP:  81;

GREAT BEND     SUNNY     79  57  47 S14G20    29.99F
LIBERAL        SUNNY     81  54  39 S13       30.02F
$$

KSZ066>073-081>083-090>101-301900-
SOUTHEAST KANSAS

CITY           SKY/WX    TMP DP  RH WIND       PRES   REMARKS
CHANUTE        CLOUDY    74  64  71 S12       30.06F
6HR MIN TEMP:  65; 6HR MAX TEMP:  75;

COFFEYVILLE    PTSUNNY   73  65  75 SE3       30.05F
6HR MIN TEMP:  64; 6HR MAX TEMP:  73; 6HR PCP:  0.01;

HUTCHINSON     SUNNY     83  58  42 S17       30.00F
6HR MIN TEMP:  62; 6HR MAX TEMP:  84;

MEDICINE LODGE   N/A     81  55  40 S6        29.99F
NEWTON         SUNNY     81  57  44 S15         N/A
PARSONS        LGT RAIN  69  66  90 CALM      30.08S
6HR MIN TEMP:  65; 6HR MAX TEMP:  75; 6HR PCP:  0.09;

WICHITA INTL   MOSUNNY   82  63  52 S18       30.00F
6HR MIN TEMP:  63; 6HR MAX TEMP:  82;

WICHITA JABRA  SUNNY     80  62  54 S16       30.01F
6HR MIN TEMP:  64; 6HR MAX TEMP:  80;

WINFIELD       SUNNY     77  63  61 S13       30.03F
6HR MIN TEMP:  64; 6HR MAX TEMP:  77;

$$

KSZ007>012-019>026-033>040-048>060-102>105-301900-
NORTHEAST KANSAS

CITY           SKY/WX    TMP DP  RH WIND       PRES   REMARKS
CONCORDIA      CLOUDY    77  59  53 S10       29.98F
6HR MIN TEMP:  63; 6HR MAX TEMP:  78;

EMPORIA        SUNNY     82  60  47 S12       30.01F
6HR MIN TEMP:  62; 6HR MAX TEMP:  82;

LAWRENCE       MOSUNNY   83  66  56 S13       29.99F
6HR MIN TEMP:  63; 6HR MAX TEMP:  84;

MANHATTAN      MOSUNNY   83  66  56 S9        29.98F
6HR MIN TEMP:  61; 6HR MAX TEMP:  83;

OLATHE IND     MOSUNNY   83  67  58 S9        30.00F
6HR MIN TEMP:  65; 6HR MAX TEMP:  83;

OLATHE EXE     CLOUDY    80  68  66 S10       30.00F
6HR MIN TEMP:  65; 6HR MAX TEMP:  80;

SALINA         PTSUNNY   82  63  52 S10       29.99F
6HR MIN TEMP:  60; 6HR MAX TEMP:  82;

TOPEKA BILLARD   N/A     83  64  52 S12       29.99F
6HR MIN TEMP:  64; 6HR MAX TEMP:  83;

TOPEKA FORBES  SUNNY     83  66  56 SE7       29.99F
6HR MIN TEMP:  63; 6HR MAX TEMP:  83;

$$




USA.gov is the U.S. government's official web portal to all federal, state and local government web resources and services.